Maastricht, Netherlands

12:14 AM CEST on October 22, 2017 (GMT +0200)
Maastricht-Aachen

Weather History for EHBK - March, 2013

Change the Weather History Date:

Monday, March 18, 2013

  Actual Average Record
Temperature  
Mean Temperature 43 °F -  
Max Temperature 52 °F 52 °F 68 °F (2004)
Min Temperature 34 °F 37 °F 29 °F (2016)
Degree Days  
Heating Degree Days 22    
Moisture  
Dew Point 31 °F    
Average Humidity 63    
Maximum Humidity 87    
Minimum Humidity 33    
Precipitation  
Precipitation 0.00 in 0.07 in - ()
Sea Level Pressure  
Sea Level Pressure 29.33 in    
Wind  
Wind Speed 12 mph ()    
Max Wind Speed 18 mph    
Max Gust Speed -    
Visibility 6.2 miles    
Events      
Averages and records for this station are not official NWS values.
T = Trace of Precipitation, MM = Missing Value Source: Averaged Metar Reports

Daily Weather History Graph

Daily Weather History Graph

Search for Another Location

Airport or City:

Trip Planner

Search our weather history database for the weather conditions in past years. The results will help you decide how hot, cold, wet, or windy it might be!

Date:

Astronomy

Mar. 18, 2013 Rise Set
Actual Time 6:43 AM CET 6:46 PM CET
Civil Twilight 6:11 AM CET 7:19 PM CET
Nautical Twilight 5:32 AM CET 7:58 PM CET
Astronomical Twilight 4:52 AM CET 8:38 PM CET
Moon 9:53 AM CET (3/18) 1:09 AM CET (3/18)
Length of Visible Light 13h 08m
Length of Day
12h 02m
Waxing Crescent, 38% of the Moon is Illuminated
Mar 18
Waxing Crescent
Mar 19
First Quarter
Mar 27
Full
Apr 3
Last Quarter
Apr 10
New

Hourly Weather History & Observations

Time (CET) Temp. Windchill Dew Point Humidity Pressure Visibility Wind Dir Wind Speed Gust Speed Precip Events Conditions
12:25 AM 39.2 °F 30.8 °F 33.8 °F 81% 29.33 in 6.2 mi South 15.0 mph - N/A   Mostly Cloudy
12:55 AM 41.0 °F 32.8 °F 35.6 °F 81% 29.33 in 6.2 mi SSW 16.1 mph - N/A   Mostly Cloudy
1:00 AM 40 °F - 35 °F 75% 29.34 in 28 mi SSW 17.9 mph - -   Partly Cloudy
1:25 AM 39.2 °F 30.2 °F 33.8 °F 81% 29.33 in 6.2 mi SSW 17.3 mph - N/A   Partly Cloudy
1:55 AM 41.0 °F 32.5 °F 35.6 °F 81% 29.33 in 6.2 mi SSW 17.3 mph - N/A   Overcast
2:25 AM 39.2 °F 30.5 °F 33.8 °F 81% 29.33 in 6.2 mi SSW 16.1 mph - N/A   Overcast
2:55 AM 39.2 °F 30.5 °F 33.8 °F 81% 29.33 in 6.2 mi SSW 16.1 mph - N/A   Overcast
3:25 AM 39.2 °F 30.5 °F 33.8 °F 81% 29.33 in 6.2 mi SSW 16.1 mph - N/A   Mostly Cloudy
3:55 AM 37.4 °F 28.2 °F 32.0 °F 81% 29.33 in 6.2 mi SSW 16.1 mph - N/A   Partly Cloudy
4:00 AM 38 °F - 32 °F 71% 29.35 in 28 mi SSW 15.7 mph - -   Partly Cloudy
4:25 AM 37.4 °F 28.2 °F 32.0 °F 81% 29.33 in 6.2 mi SSW 16.1 mph - N/A   Unknown
4:55 AM 35.6 °F 26.2 °F 32.0 °F 87% 29.33 in 6.2 mi SSW 15.0 mph - N/A   Unknown
5:25 AM 37.4 °F 28.5 °F 30.2 °F 75% 29.33 in 6.2 mi SSW 15.0 mph - N/A   Unknown
5:55 AM 35.6 °F 27.1 °F 30.2 °F 81% 29.33 in 6.2 mi SSW 12.7 mph - N/A   Unknown
6:25 AM 35.6 °F 27.1 °F 30.2 °F 81% 29.36 in 6.2 mi SSW 12.7 mph - N/A   Unknown
6:55 AM 35.6 °F 28.0 °F 30.2 °F 81% 29.36 in 6.2 mi South 10.4 mph - N/A   Unknown
7:00 AM 35 °F - 30 °F 74% 29.37 in 28 mi South 8.9 mph - -   Partly Cloudy
7:25 AM 35.6 °F 27.5 °F 30.2 °F 81% 29.36 in 6.2 mi SSW 11.5 mph - N/A   Partly Cloudy
7:55 AM 37.4 °F 29.8 °F 30.2 °F 75% 29.36 in 6.2 mi South 11.5 mph - N/A   Partly Cloudy
8:25 AM 37.4 °F 29.3 °F 30.2 °F 75% 29.36 in 6.2 mi South 12.7 mph - N/A   Partly Cloudy
8:55 AM 39.2 °F 32.0 °F 30.2 °F 70% 29.36 in 6.2 mi South 11.5 mph - N/A   Unknown
9:25 AM 41.0 °F 34.7 °F 32.0 °F 70% 29.36 in 6.2 mi South 10.4 mph - N/A   Unknown
9:55 AM 44.6 °F 38.1 °F 30.2 °F 57% 29.33 in 6.2 mi SSW 13.8 mph - N/A   Unknown
10:00 AM 45 °F - 32 °F 48% 29.36 in 22 mi SSW 13.4 mph - -  
10:25 AM 46.4 °F 40.4 °F 32.0 °F 57% 29.33 in 6.2 mi SSW 13.8 mph - N/A   Unknown
10:55 AM 46.4 °F 40.1 °F 30.2 °F 53% 29.33 in 6.2 mi South 15.0 mph - N/A   Unknown
11:25 AM 48.2 °F - 30.2 °F 50% 29.33 in 6.2 mi South 11.5 mph - N/A   Unknown
11:55 AM 50.0 °F - 30.2 °F 47% 29.33 in 6.2 mi SSW 15.0 mph - N/A   Unknown
12:25 PM 50.0 °F - 30.2 °F 47% 29.30 in 6.2 mi SSW 10.4 mph - N/A   Unknown
12:55 PM 50.0 °F - 30.2 °F 47% 29.30 in 6.2 mi SSW 11.5 mph - N/A   Unknown
1:00 PM 50 °F - 29 °F 33% 29.32 in 25 mi SSW 8.9 mph - -   Partly Cloudy
1:25 PM 50.0 °F - 30.2 °F 47% 29.30 in 6.2 mi SSW 10.4 mph - N/A   Unknown
1:55 PM 51.8 °F - 30.2 °F 44% 29.30 in 6.2 mi SSW 8.1 mph - N/A   Unknown
2:25 PM 51.8 °F - 30.2 °F 44% 29.30 in 6.2 mi SW 6.9 mph - N/A   Unknown
2:55 PM 51.8 °F - 30.2 °F 44% 29.30 in 6.2 mi SW 4.6 mph - N/A   Unknown
3:25 PM 50.0 °F - 28.4 °F 43% 29.30 in 6.2 mi SSE 6.9 mph - N/A   Unknown
3:55 PM 50.0 °F - 28.4 °F 43% 29.30 in 6.2 mi SSE 5.8 mph - N/A   Unknown
4:00 PM 51 °F - 31 °F 35% 29.31 in 25 mi SSE 6.7 mph - -   Mostly Cloudy
4:25 PM 50.0 °F - 32.0 °F 50% 29.30 in 6.2 mi South 10.4 mph - N/A   Unknown
4:55 PM 48.2 °F - 30.2 °F 50% 29.30 in 6.2 mi South 9.2 mph - N/A   Unknown
5:25 PM 48.2 °F - 32.0 °F 54% 29.30 in 6.2 mi South 8.1 mph - N/A   Partly Cloudy
5:55 PM 48.2 °F - 32.0 °F 54% 29.30 in 6.2 mi South 10.4 mph - N/A   Partly Cloudy
6:25 PM 46.4 °F 41.9 °F 30.2 °F 53% 29.30 in 6.2 mi South 9.2 mph - N/A   Mostly Cloudy
6:55 PM 44.6 °F 40.2 °F 30.2 °F 57% 29.30 in 6.2 mi South 8.1 mph - N/A   Unknown
7:00 PM 45 °F - 31 °F 45% 29.34 in 28 mi South 6.7 mph - -   Partly Cloudy
7:25 PM 44.6 °F 42.2 °F 30.2 °F 57% 29.30 in 6.2 mi South 4.6 mph - N/A   Unknown
7:55 PM 42.8 °F 39.3 °F 32.0 °F 66% 29.33 in 6.2 mi SE 5.8 mph - N/A   Unknown
8:25 PM 42.8 °F 39.3 °F 32.0 °F 66% 29.33 in 6.2 mi SE 5.8 mph - N/A   Unknown
8:55 PM 42.8 °F 39.3 °F 30.2 °F 61% 29.33 in 6.2 mi South 5.8 mph - N/A   Unknown
9:25 PM 41.0 °F 36.4 °F 30.2 °F 65% 29.33 in 6.2 mi South 6.9 mph - N/A   Unknown
9:55 PM 41.0 °F 37.1 °F 28.4 °F 61% 29.33 in 6.2 mi South 5.8 mph - N/A   Unknown
10:00 PM 41 °F - 29 °F 51% 29.35 in 28 mi South 6.7 mph - -  
10:25 PM 41.0 °F 38.0 °F 28.4 °F 61% 29.33 in 6.2 mi South 4.6 mph - N/A   Unknown
10:55 PM 39.2 °F 35.0 °F 28.4 °F 65% 29.33 in 6.2 mi SSE 5.8 mph - N/A   Unknown
11:25 PM 39.2 °F 35.0 °F 28.4 °F 65% 29.33 in 6.2 mi South 5.8 mph - N/A   Unknown
11:55 PM 39.2 °F 35.0 °F 28.4 °F 65% 29.33 in 6.2 mi South 5.8 mph - N/A   Unknown